Kokomo, IN

8:13 AM EDT on September 22, 2017 (GMT -0400)
Kokomo Municipal

Weather History for KOKK - February, 2013

Change the Weather History Date:

Thursday, February 21, 2013

  Actual Average (KGUS) Record (KGUS)
Temperature  
Mean Temperature 24 °F -  
Max Temperature 26 °F 38 °F 59 °F (1997)
Min Temperature 21 °F 24 °F 0 °F (2008)
Degree Days  
Heating Degree Days 42    
Moisture  
Dew Point 19 °F    
Average Humidity 77    
Maximum Humidity 86    
Minimum Humidity 69    
Precipitation  
Precipitation 0.03 in - - ()
Sea Level Pressure  
Sea Level Pressure 30.22 in    
Wind  
Wind Speed 12 mph (ENE)    
Max Wind Speed 25 mph    
Max Gust Speed 30 mph    
Visibility 9 miles    
Events      
Averages and records for this station are not official NWS values.
T = Trace of Precipitation, MM = Missing Value Source: NWS Daily Summary

Daily Weather History Graph

Daily Weather History Graph

Search for Another Location

Airport or City:

Trip Planner

Search our weather history database for the weather conditions in past years. The results will help you decide how hot, cold, wet, or windy it might be!

Date:

Astronomy

Feb. 21, 2013 Rise Set
Actual Time 6:29 AM CST 5:26 PM CST
Civil Twilight 6:01 AM CST 5:54 PM CST
Nautical Twilight 5:30 AM CST 6:26 PM CST
Astronomical Twilight 4:58 AM CST 6:57 PM CST
Moon 1:40 PM CST (2/21) 3:34 AM CST (2/21)
Length of Visible Light 11h 52m
Length of Day
10h 57m
Waxing Gibbous, 84% of the Moon is Illuminated
Feb 21
Waxing Gibbous
Feb 25
Full
Mar 4
Last Quarter
Mar 11
New
Mar 19
First Quarter

Hourly Weather History & Observations

Time (CST) Temp. Windchill Dew Point Humidity Pressure Visibility Wind Dir Wind Speed Gust Speed Precip Events Conditions
12:15 AM 21.2 °F 10.1 °F 15.8 °F 80% 30.31 in 10.0 mi North 10.4 mph - N/A   Overcast
12:35 AM 21.2 °F 10.1 °F 15.8 °F 80% 30.31 in 10.0 mi NNE 10.4 mph - N/A   Overcast
12:55 AM 21.2 °F 10.9 °F 15.8 °F 80% 30.31 in 10.0 mi North 9.2 mph - N/A   Overcast
1:15 AM 21.2 °F 12.6 °F 17.6 °F 86% 30.31 in 10.0 mi North 6.9 mph - N/A   Overcast
1:35 AM 21.2 °F 11.7 °F 15.8 °F 80% 30.31 in 10.0 mi North 8.1 mph - N/A   Overcast
1:55 AM 21.2 °F 11.7 °F 15.8 °F 80% 30.31 in 10.0 mi North 8.1 mph - N/A   Overcast
2:15 AM 21.2 °F 13.6 °F 15.8 °F 80% 30.31 in 10.0 mi NNE 5.8 mph - N/A   Overcast
2:35 AM 21.2 °F 11.7 °F 17.6 °F 86% 30.30 in 10.0 mi NNE 8.1 mph - N/A   Overcast
2:55 AM 21.2 °F 12.6 °F 15.8 °F 80% 30.30 in 10.0 mi North 6.9 mph - N/A   Overcast
3:15 AM 21.2 °F 11.7 °F 15.8 °F 80% 30.29 in 10.0 mi NNE 8.1 mph - N/A   Overcast
3:35 AM 23.0 °F 14.7 °F 15.8 °F 74% 30.30 in 10.0 mi NNE 6.9 mph - N/A   Overcast
3:55 AM 23.0 °F 15.8 °F 15.8 °F 74% 30.29 in 10.0 mi NNE 5.8 mph - N/A   Overcast
4:15 AM 23.0 °F 13.9 °F 17.6 °F 80% 30.29 in 10.0 mi NNE 8.1 mph - N/A   Overcast
4:35 AM 23.0 °F 14.7 °F 17.6 °F 80% 30.30 in 10.0 mi NE 6.9 mph - N/A   Overcast
4:55 AM 23.0 °F 13.9 °F 15.8 °F 74% 30.30 in 10.0 mi NNE 8.1 mph - N/A   Overcast
5:15 AM 24.8 °F 19.1 °F 15.8 °F 69% 30.31 in 10.0 mi NE 4.6 mph - N/A   Overcast
5:55 AM 24.8 °F 14.0 °F 17.6 °F 74% 30.33 in 10.0 mi North 11.5 mph - N/A   Overcast
6:15 AM 24.8 °F 15.3 °F 17.6 °F 74% 30.32 in 10.0 mi NNE 9.2 mph - N/A   Overcast
6:35 AM 24.8 °F 15.3 °F 17.6 °F 74% 30.31 in 10.0 mi NE 9.2 mph - N/A   Overcast
6:55 AM 24.8 °F 15.3 °F 17.6 °F 74% 30.31 in 10.0 mi NNE 9.2 mph - N/A   Overcast
7:15 AM 24.8 °F 17.9 °F 17.6 °F 74% 30.33 in 10.0 mi NE 5.8 mph - N/A   Overcast
7:35 AM 24.8 °F 16.9 °F 17.6 °F 74% 30.33 in 10.0 mi NNE 6.9 mph - N/A   Overcast
7:55 AM 24.8 °F 14.6 °F 19.4 °F 80% 30.31 in 10.0 mi ENE 10.4 mph - N/A   Overcast
8:15 AM 24.8 °F 16.1 °F 17.6 °F 74% 30.32 in 10.0 mi ENE 8.1 mph - N/A   Overcast
8:35 AM 24.8 °F 15.3 °F 17.6 °F 74% 30.32 in 10.0 mi NE 9.2 mph - N/A   Overcast
8:55 AM 24.8 °F 14.0 °F 17.6 °F 74% 30.31 in 10.0 mi ENE 11.5 mph - N/A   Overcast
9:15 AM 24.8 °F 16.1 °F 19.4 °F 80% 30.31 in 10.0 mi East 8.1 mph - N/A   Overcast
9:35 AM 24.8 °F 16.9 °F 17.6 °F 74% 30.32 in 10.0 mi East 6.9 mph - N/A   Overcast
9:55 AM 24.8 °F 16.1 °F 17.6 °F 74% 30.32 in 10.0 mi ESE 8.1 mph - N/A   Overcast
10:15 AM 24.8 °F 16.9 °F 17.6 °F 74% 30.32 in 10.0 mi SE 6.9 mph - N/A   Overcast
10:35 AM 24.8 °F 16.1 °F 19.4 °F 80% 30.31 in 10.0 mi East 8.1 mph - N/A   Overcast
10:55 AM 26.6 °F 17.5 °F 17.6 °F 69% 30.29 in 10.0 mi East 9.2 mph 16.1 mph N/A   Overcast
11:15 AM 24.8 °F 16.1 °F 17.6 °F 74% 30.32 in 10.0 mi East 8.1 mph - N/A   Overcast
11:35 AM 24.8 °F 16.1 °F 17.6 °F 74% 30.30 in 10.0 mi East 8.1 mph - N/A   Overcast
11:55 AM 24.8 °F 13.4 °F 19.4 °F 80% 30.28 in 10.0 mi East 12.7 mph - N/A   Overcast
12:15 PM 26.6 °F 16.8 °F 17.6 °F 69% 30.27 in 10.0 mi East 10.4 mph - N/A   Overcast
12:35 PM 26.6 °F 16.2 °F 17.6 °F 69% 30.26 in 10.0 mi ESE 11.5 mph - N/A   Overcast
12:55 PM 26.6 °F 14.7 °F 19.4 °F 74% 30.23 in 10.0 mi East 15.0 mph - N/A   Overcast
1:15 PM 26.6 °F 14.7 °F 19.4 °F 74% 30.21 in 10.0 mi East 15.0 mph - N/A   Overcast
1:35 PM 26.6 °F 12.7 °F 19.4 °F 74% 30.15 in 10.0 mi East 20.7 mph - N/A   Overcast
1:55 PM 26.6 °F 13.8 °F 19.4 °F 74% 30.18 in 10.0 mi East 17.3 mph - N/A   Overcast
2:15 PM 26.6 °F 12.4 °F 19.4 °F 74% 30.17 in 10.0 mi East 21.9 mph - N/A   Overcast
2:35 PM 26.6 °F 12.7 °F 19.4 °F 74% 30.18 in 10.0 mi East 20.7 mph 24.2 mph N/A   Scattered Clouds
2:55 PM 26.6 °F 16.2 °F 19.4 °F 74% 30.22 in 10.0 mi ESE 11.5 mph - N/A   Mostly Cloudy
3:15 PM 26.6 °F 16.2 °F 19.4 °F 74% 30.23 in 10.0 mi ESE 11.5 mph - N/A   Overcast
3:35 PM 26.6 °F 16.2 °F 19.4 °F 74% 30.22 in 10.0 mi East 11.5 mph - N/A   Overcast
3:55 PM 26.6 °F 15.2 °F 19.4 °F 74% 30.23 in 10.0 mi East 13.8 mph - N/A   Overcast
4:15 PM 26.6 °F 13.8 °F 19.4 °F 74% 30.20 in 10.0 mi East 17.3 mph 20.7 mph N/A   Overcast
4:35 PM 26.6 °F 14.3 °F 19.4 °F 74% 30.18 in 10.0 mi East 16.1 mph 21.9 mph N/A   Overcast
4:55 PM 26.6 °F 13.8 °F 19.4 °F 74% 30.18 in 10.0 mi East 17.3 mph 24.2 mph N/A   Mostly Cloudy
5:15 PM 26.6 °F 12.4 °F 19.4 °F 74% 30.16 in 10.0 mi East 21.9 mph 26.5 mph N/A   Scattered Clouds
5:35 PM 26.6 °F 12.4 °F 19.4 °F 74% 30.16 in 10.0 mi East 21.9 mph 29.9 mph N/A   Clear
5:55 PM 26.6 °F 13.4 °F 19.4 °F 74% 30.17 in 10.0 mi ESE 18.4 mph - N/A   Partly Cloudy
6:15 PM 26.6 °F 12.7 °F 19.4 °F 74% 30.17 in 10.0 mi ESE 20.7 mph - N/A   Mostly Cloudy
6:35 PM 26.6 °F 13.8 °F 19.4 °F 74% 30.17 in 10.0 mi ESE 17.3 mph 23.0 mph N/A   Mostly Cloudy
6:55 PM 26.6 °F 12.4 °F 19.4 °F 74% 30.15 in 10.0 mi ESE 21.9 mph 26.5 mph N/A   Overcast
7:15 PM 26.6 °F 13.4 °F 19.4 °F 74% 30.15 in 10.0 mi ESE 18.4 mph - N/A   Mostly Cloudy
7:35 PM 26.6 °F 14.3 °F 19.4 °F 74% 30.14 in 10.0 mi ESE 16.1 mph 25.3 mph N/A   Mostly Cloudy
7:55 PM 26.6 °F 12.7 °F 19.4 °F 74% 30.12 in 10.0 mi ESE 20.7 mph - N/A   Overcast
8:15 PM 26.6 °F 12.4 °F 19.4 °F 74% 30.13 in 8.0 mi ESE 21.9 mph 25.3 mph N/A   Overcast
8:35 PM 26.6 °F 11.4 °F 19.4 °F 74% 30.11 in 10.0 mi ESE 25.3 mph - N/A   Overcast
8:55 PM 24.8 °F 10.0 °F 21.2 °F 86% 30.09 in 2.0 mi East 21.9 mph 25.3 mph 0.01 in   Overcast
9:15 PM 24.8 °F 10.0 °F 21.2 °F 86% 30.07 in 4.0 mi East 21.9 mph 27.6 mph N/A   Overcast
9:35 PM 24.8 °F 10.0 °F 21.2 °F 86% 30.04 in 3.0 mi East 21.9 mph 29.9 mph 0.01 in   Mostly Cloudy
9:55 PM 24.8 °F 9.3 °F 21.2 °F 86% 30.02 in 6.0 mi East 24.2 mph 28.8 mph 0.01 in   Mostly Cloudy
10:15 PM 24.8 °F 9.6 °F 21.2 °F 86% 30.02 in 5.0 mi East 23.0 mph 27.6 mph N/A   Mostly Cloudy
10:35 PM 24.8 °F 9.6 °F 21.2 °F 86% 30.02 in 5.0 mi East 23.0 mph 28.8 mph N/A   Overcast
10:55 PM 24.8 °F 9.3 °F 21.2 °F 86% 30.01 in 4.0 mi East 24.2 mph 28.8 mph 0.01 in   Overcast
11:15 PM 24.8 °F 10.0 °F 21.2 °F 86% 30.02 in 3.0 mi ESE 21.9 mph 27.6 mph N/A   Overcast
11:35 PM 24.8 °F 9.6 °F 21.2 °F 86% 29.99 in 2.5 mi East 23.0 mph 29.9 mph N/A   Overcast
11:55 PM 24.8 °F 10.3 °F 21.2 °F 86% 29.99 in 6.0 mi East 20.7 mph 27.6 mph N/A   Overcast